Weather past 2 weeks in Saipan, Northern Mariana Islands

Now
80 °F

Light rain. Partly sunny.


Feels Like: 84 °F
Forecast: 74 / 81 °F
Wind: 22 mph from Northeast

Location: Saipan International Airport

Current Time: Mar 27, 2015 at 12:02:39 PM

Latest Report: Mar 27, 2015 at 10:54 AM


Visibility: 10 mi

Pressure: 30.08 "Hg

Humidity: 79%

Dew point: 73 °F

Location of SaipanLocation

Historic Weather in Saipan — Graph

°F

Saipan temperature yesterday

Maximum temperature yesterday: 84 °F (at 10:54 AM)
Minimum temperature yesterday: 77 °F (at 2:54 AM)
Average temperature yesterday: 80 °F

Past Weeks' High & Low Weather Summary

 TemperatureHumidityPressure
High86 °F (Mar 16, 12:08 PM)100% (Mar 15, 4:12 PM)30.15 "Hg (Mar 15, 4:12 PM)
Low72 °F (Mar 15, 4:12 PM)50% (Mar 14, 10:54 AM)29.50 "Hg (Mar 15, 4:12 PM)
Average79 °F81%29.94 "Hg
* Reported Mar 12 10:54 AM — Mar 27 10:54 AM, Saipan, Weather by CustomWeather, © 2015

Note: Actual official high and low records may vary slightly from our data, if they occured in-between our weather recording intervals... More about our weather records

Advertising

Saipan weather history for previous 24 hours

 ConditionsComfort  
Time TempWeatherWind HumidityBarometerVisibility
10:54 AM
Fri, Mar 27
80 °FLight rain. Partly sunny.22 mph79%30.08 "Hg10 mi
10:31 AM82 °FMostly cloudy.23 mph70%30.02 "Hg10 mi
9:54 AM82 °FCloudy.23 mph70%30.09 "Hg10 mi
8:54 AM82 °FScattered clouds.23 mph70%30.09 "Hg10 mi
7:54 AM80 °FScattered clouds.20 mph71%30.08 "Hg10 mi
6:54 AM78 °FScattered clouds.20 mph76%30.06 "Hg10 mi
5:54 AM78 °FPassing clouds.17 mph74%30.04 "Hg10 mi
4:54 AM78 °FPassing clouds.17 mph71%30.03 "Hg10 mi
3:54 AM77 °FPassing clouds.17 mph79%30.02 "Hg10 mi
2:54 AM77 °FClear.14 mph77%30.03 "Hg10 mi
1:54 AM78 °FPassing clouds.15 mph74%30.05 "Hg10 mi
12:54 AM78 °FPassing clouds.17 mph74%30.08 "Hg10 mi
11:54 PM
Thu, Mar 26
78 °FPassing clouds.17 mph74%30.09 "Hg10 mi
10:54 PM78 °FPassing clouds.21 mph76%30.09 "Hg10 mi
9:54 PM79 °FPartly cloudy.20 mph74%30.09 "Hg10 mi
9:25 PM79 °FPartly cloudy.22 mph74%30.03 "Hg10 mi
9:12 PM79 °FPassing clouds.21 mph74%30.03 "Hg10 mi
8:54 PM79 °FPassing clouds.21 mph74%30.09 "Hg10 mi
7:54 PM79 °FPassing clouds.18 mph72%30.07 "Hg10 mi
6:54 PM79 °FPassing clouds.21 mph74%30.05 "Hg10 mi
5:54 PM80 °FSunny.20 mph67%30.04 "Hg10 mi
4:54 PM81 °FScattered clouds.25 mph67%30.02 "Hg10 mi
3:54 PM83 °FScattered clouds.22 mph65%30.03 "Hg10 mi
2:54 PM82 °FBroken clouds.23 mph65%30.03 "Hg10 mi
1:54 PM84 °FOvercast.20 mph61%30.05 "Hg10 mi
12:54 PM83 °FOvercast.23 mph61%30.07 "Hg10 mi
Weather by CustomWeather, © 2015

See weather overviewHow to use our weather pages